"Pseudo-MPEC" for C9HMFM2

Created 2023 Sep 19 21:22:15 UT using Find_Orb

Click here for an explanation of pseudo-MPECs

 
 Astrometry: 
     C9HMFM2*1C2023 09 19.19218522 48 25.100+05 48 45.40   ~9J5M 21.63GVNEOCPG96
     C9HMFM2 1C2023 09 19.19787422 48 11.160+05 50 29.20   ~9J5M       VNEOCPG96
     C9HMFM2 1C2023 09 19.20356022 47 57.000+05 52 14.80   ~9J5Mx19.74GVNEOCPG96
     C9HMFM2 1C2023 09 19.20924822 47 43.020+05 53 59.90   ~9J5M 19.71GVNEOCPG96
     C9HMFM2 KC2023 09 19.24345022 46 14.552+06 04 54.66   ~9J6M 19.75GVNEOCPI52
     C9HMFM2 KC2023 09 19.24432422 46 12.205+06 05 11.80   ~9J6M 19.68GVNEOCPI52
     C9HMFM2 KC2023 09 19.24743222 46 03.832+06 06 13.25   ~9J6M 19.79GVNEOCPI52
     C9HMFM2 KC2023 09 19.24830022 46 01.513+06 06 30.46   ~9J6M 20.19GVNEOCPI52
     C9HMFM2 KC2023 09 19.32461622 42 20.790+06 33 20.77   ~9J8M 19.51GVNEOCPI52
     C9HMFM2 KC2023 09 19.32506022 42 19.429+06 33 30.78   ~9J8M 19.51GVNEOCPI52
     C9HMFM2 KC2023 09 19.32550522 42 18.072+06 33 41.00   ~9J8M 19.58GVNEOCPI52
     C9HMFM2 KC2023 09 19.32595522 42 16.664+06 33 50.90   ~9J8M 19.81GVNEOCPI52
     C9HMFM2 1C2023 09 19.78186 22 06 17.60 +11 22 12.5    ~9JJ7 19.4 VXNEOCP033
     C9HMFM2 1C2023 09 19.78209 22 06 15.53 +11 22 27.8    ~9JJ7 19.5 VXNEOCP033
     C9HMFM2 1C2023 09 19.78233 22 06 13.41 +11 22 43.5    ~9JJ7 19.3 VXNEOCP033
     C9HMFM2 1C2023 09 19.78270 22 06 10.17 +11 23 07.7    ~9JJ7 19.7 VXNEOCP033
     C9HMFM2 KC2023 09 196?QWS5Astrometry1[ZKs,D@:FUR#9xG!EkpDw8/3X:D1)0Fc[?I104
     C9HMFM2 KB2023 09 19.80671422 02 46.16 +11 52 25.7    ~9JK7 19.8 GVNEOCPI93
     C9HMFM2 KC2023 09 19%9cLH;jLThM/g1;t(P4Ma=7aZr]wtFIB9HJ[uredacted;Zclick104
     C9HMFM2 KB2023 09 19.80953822 02 18.87 +11 55 47.5    ~9JK7 18.8 GVNEOCPI93
     C9HMFM2 KB2023 09 19.81327322 01 42.34 +12 00 17.2    ~9JK7 18.6 GVNEOCPI93
     C9HMFM2 KB2023 09 19.81704322 01 04.97 +12 04 52.3    ~9JK7 19.0 GVNEOCPI93
     C9HMFM2 KC2023 09 199`4.Xb7cw$nUf)Mlf$@3Nc)A1SW-gY'G/:0#ar'U'm^T:%2Zl`wu587
     C9HMFM2 KC2023 09 19\/(9pprJwtY7*3nk+v2C9@]Sr0mo+OXgh(];S55here2sFud+KnW587
     C9HMFM2 KC2023 09 19^,uk$+_Mj4`XWh;LA*;.e4.`R9epW3Np?#aw/FKy51WlSMforu1Y587
     C9HMFM2 KC2023 09 19)vG76yP!Ib5QX.U?,d@1=UvOGOV?$gR-dyxTR)0!kE-#-bv9$CqrG34
     C9HMFM2 KC2023 09 19r*(7.pip4BHexplanationht+xPvw7S+yPx%l#WO6aW(JMKt;nB^G34

Station data:
(033) Karl Schwarzschild Observatory, Tautenburg  (N50.980137 E11.711240)
   Germany.  Observer B. Stecklum. 1.34-m f/3 Schmidt + CCD.
(104) San Marcello Pistoiese  (N44.064178 E10.803750)  Italy.  Observers P.
   Bacci, M. Maestripieri. Measurers P. Bacci, L. Tesi, G. Fagioli. 0.60-m
   reflector + CCD.
(587) Sormano  (N45.882946 E9.229180)  Italy.  Observers E. Colzani, E. Valli.
    Measurer P. Sicoli. 0.5-m f/6.8 reflector + CCD.
(G34) Oberfrauendorf  (N50.860060 E13.701500)  Germany.  Observer T. Felber.
   0.35-m f/6.3 Schmidt-Cassegrain + CCD.
(G96) Mt. Lemmon Survey  (N32.442751 W110.788720)  US/Arizona.  Observer E.
   J. Christensen. 1.5-m reflector + 10K CCD.
(I52) Steward Observatory, Mt. Lemmon Station  (N32.442544 W110.788920)
   US/Arizona.  Observers T. A. Pruyne, B. M. Africano, E. J. Christensen, G.
   A. Farneth, D. C. Fuls, A. R. Gibbs, A. D. Grauer, H. Gröller, J. A.
   Johnson, R. A. Kowalski, S. M. Larson, G. J. Leonard, D. Rankin, R. L.
   Seaman, F. C. Shelly, K. W. Wierzchoś. 1.0-m prime focus + CCD.
(I93) St Pardon de Conques  (N44.558708 W0.203000)  France.  Observers F.
   Losse, W. D'Anna. Measurer F. Losse. 0.40-m f/3.7 reflector + CCD.

Orbital elements:  C9HMFM2
   Perigee 2023 Sep 20.32082 +/- 9e-5 TT =  7:41:58 (JD 2460207.82082)
Epoch 2023 Sep 20.0 TT = JDT 2460207.5                           AutoNEOCP
q331913.615 +/- 272                 (J2000 equator)
H   29.32 G 0.15                    Peri.   90.21641 +/- 0.0026
                                    Node   352.37558 +/- 0.00020
e 217.5748291 +/- 0.482             Incl.  150.02942 +/- 0.00042
26 of 27 observations 2023 Sept. 19 (15.5 hr); mean residual 0".43
Residuals in arcseconds: 
230919 G96  1.3+  .21-    230919 I52  .04-  .05+    230919 104  1.1-  .01-    
230919 G96  .45-  .17-    230919 I52  .22+  .27+    230919 I93  .10+  .20-    
230919 G96( 3.1-  .81+)   230919 I52  .03-  .05+    230919 I93  .11+  .19-    
230919 G96  .61-  .32+    230919 033  .63+  .44-    230919 I93  .30+  .29-    
230919 I52  .07+  .00     230919 033  .12+  .28-    230919 587  .47-  .33+    
230919 I52  .05-  .06-    230919 033  .21+  .40-    230919 587  .08+  .05+    
230919 I52  .39-  .01+    230919 033  .82+  .61-    230919 587  .76-  .16-    
230919 I52  .06-  .02+    230919 104  .01+  .92+    230919 G34  .44+  .54-    
230919 I52  .18-  .02+    230919 I93  .09+  .01-    230919 G34  .16-  1.1+    

Ephemerides (geocentric):
Date (UTC) HH   RA             Dec           delta  r     elong  mag " sig PA
---- --------  ------------   ------------  ------ ------ -----  --- --------
2023 09 19 21  21 49 56.152   +13 38 16.93  704445 1.0085 147.4 19.1 1.36 140
2023 09 19 22  21 41 03.151   +14 43 11.41  653729 1.0081 145.0 19.0 1.85 134
2023 09 19 23  21 30 35.160   +15 57 13.78  604350 1.0077 142.1 18.9 2.53 130
2023 09 20 00  21 18 07.732   +17 21 43.72  556666 1.0073 138.8 18.8 3.47 126
2023 09 20 01  21 03 09.119   +18 57 50.56  511151 1.0069 134.9 18.7 4.78 123
2023 09 20 02  20 44 58.745   +20 46 04.36  468441 1.0065 130.2 18.7 6.55 119
2023 09 20 03  20 22 46.873   +22 45 20.13  429374 1.0061 124.7 18.6 8.94 116
2023 09 20 04  19 55 38.128   +24 51 23.52  395036 1.0057 118.1 18.6 12.0 112
2023 09 20 05  19 22 44.024   +26 54 46.30  366760 1.0053 110.4 18.7 15.8 108
2023 09 20 06  18 43 50.551   +28 39 24.47  346037 1.0049 101.6 18.9 20.0 102
2023 09 20 07  17 59 57.679   +29 44 51.96  334278 1.0045  91.9 19.2 24.1  97
2023 09 20 08  17 13 41.451   +29 54 29.11  332437 1.0041  81.9 19.6 27.3  91
2023 09 20 09  16 28 35.895   +29 05 21.21  340674 1.0037  72.0 20.2 29.0  85
2023 09 20 10  15 47 45.456   +27 30 20.30  358294 1.0033  62.9 20.8 29.2  80
2023 09 20 11  15 12 43.713   +25 29 49.52  384005 1.0029  54.8 21?? 28.3  76
2023 09 20 12  14 43 38.103   +23 21 59.50  416308 1.0025  47.8 22?? 26.6  73
2023 09 20 13  14 19 48.244   +21 18 34.26  453795 1.0021  41.9 23?? 24.8  70
2023 09 20 14  14 00 19.088   +19 25 22.06  495288 1.0017  36.9 24?? 22.9  69
2023 09 20 15  13 44 18.188   +17 44 19.28  539863 1.0013  32.8 25?? 21.2  67
2023 09 20 16  13 31 01.667   +16 15 18.92  586816 1.0009  29.2 25?? 19.7  66
2023 09 20 17  13 19 54.822   +14 57 19.24  635619 1.0005  26.2 26?? 18.4  66
2023 09 20 18  13 10 30.832   +13 49 00.61  685877 1.0001  23.7 27?? 17.3  65
2023 09 20 19  13 02 29.110   +12 49 03.24  737292 0.9997  21.5 28?? 16.3  65
2023 09 20 20  12 55 33.828   +11 56 14.48  789637 0.9993  19.5 29?? 15.4  64
2023 09 20 21  12 49 32.739   +11 09 31.19  842738 0.9989  17.9 29?? 14.6  64
2023 09 20 22  12 44 16.291   +10 27 59.70  896460 0.9985  16.4 30?? 14.0  64
2023 09 20 23  12 39 36.965   +09 50 54.90  950699 0.9981  15.1 31?? 13.4  63
2023 09 21 00  12 35 28.779   +09 17 39.06  .00672 0.9977  13.9 32?? 12.9  63
2023 09 21 01  12 31 46.937   +08 47 40.62  .00709 0.9973  12.8 33?? 12.5  63
2023 09 21 02  12 28 27.551   +08 20 33.18  .00746 0.9969  11.9 33?? 12.1  63
2023 09 21 03  12 25 27.447   +07 55 54.55  .00783 0.9965  11.0 34?? 11.7  63
2023 09 21 04  12 22 44.008   +07 33 26.02  .00820 0.9961  10.3 35?? 11.4  63
2023 09 21 05  12 20 15.063   +07 12 51.76  .00858 0.9957   9.6 36?? 11.1  62
2023 09 21 06  12 17 58.796   +06 53 58.31  .00895 0.9953   8.9 37?? 10.9  62
2023 09 21 07  12 15 53.675   +06 36 34.15  .00933 0.9949   8.3 38?? 10.6  62
2023 09 21 08  12 13 58.406   +06 20 29.43  .00971 0.9945   7.8 39?? 10.4  62
2023 09 21 09  12 12 11.881   +06 05 35.63  .01009 0.9941   7.3 39?? 10.2  62
2023 09 21 10  12 10 33.154   +05 51 45.38  .01047 0.9937   6.8 40?? 10.0  62
2023 09 21 11  12 09 01.407   +05 38 52.27  .01085 0.9933   6.4 41?? 9.86  62
2023 09 21 12  12 07 35.932   +05 26 50.73  .01123 0.9929   6.0 42?? 9.71  62
2023 09 21 13  12 06 16.113   +05 15 35.84  .01161 0.9926   5.6 43?? 9.57  62
2023 09 21 14  12 05 01.410   +05 05 03.30  .01199 0.9922   5.3 44?? 9.44  62
2023 09 21 15  12 03 51.352   +04 55 09.32  .01237 0.9918   5.0 45?? 9.31  62
2023 09 21 16  12 02 45.520   +04 45 50.51  .01275 0.9914   4.7 46?? 9.20  62
2023 09 21 17  12 01 43.546   +04 37 03.89  .01314 0.9910   4.4 47?? 9.10  62
2023 09 21 18  12 00 45.103   +04 28 46.79  .01352 0.9906   4.2 48?? 9.00  62
2023 09 21 19  11 59 49.900   +04 20 56.83  .01390 0.9902   4.0 50?? 8.90  62
2023 09 21 20  11 58 57.675   +04 13 31.86  .01429 .98976   3.8 51?? 8.82  62